Regional Weather Roundup
Issued by NWS Little Rock, AR

Home | Current Version | Previous Version | Text Only | Print | Product List | Glossary Off
Versions: 1 2 3 4 5 6 7 8 9 10 11 12 13 14 15 16 17 18 19 20 21 22 23 24 25 26 27

000
ASUS44 KLZK 282205
RWRLZK

WEATHER ROUNDUP FOR ARKANSAS
NATIONAL WEATHER SERVICE LITTLE ROCK AR
500 PM CDT THU APR 28 2016

NOTE: "FAIR" INDICATES FEW OR NO CLOUDS BELOW 12,000 FEET WITH NO
SIGNIFICANT WEATHER AND/OR OBSTRUCTIONS TO VISIBILITY.

ARZ001-003-010-029-282300-
NORTHWEST ARKANSAS

CITY           SKY/WX    TMP DP  RH WIND       PRES   REMARKS
FAYETTEVILLE   SUNNY     77  47  34 VRB5      29.94F
FORT SMITH     SUNNY     80  44  27 NE8       29.91F
HARRISON       SUNNY     77  43  29 NW5       29.95F
BENTONVILLE    SUNNY     75  45  33 CALM      29.97S
ROGERS         SUNNY     74  47  38 NE7       29.97S
SILOAM SPGS    SUNNY     73  46  38 N6        29.96F
HIGHFILL       SUNNY     75  48  38 N3        29.95F
SPRINGDALE     SUNNY     75  45  33 N6        29.97F
$$

ARZ004-005-016-282300-
NORTH CENTRAL ARKANSAS

CITY           SKY/WX    TMP DP  RH WIND       PRES   REMARKS
BATESVILLE     SUNNY     82  45  26 CALM      29.93F
FLIPPIN        SUNNY    N/A N/A N/A NE7       29.91F
MTN HOME       SUNNY     76  41  28 W6        29.94F
$$

ARZ040-041-282300-
WEST CENTRAL ARKANSAS

CITY           SKY/WX    TMP DP  RH WIND       PRES   REMARKS
MENA           SUNNY     86  46  25 SE5       29.92R
MOUNT IDA      SUNNY     82  51  34 VRB3      29.89S
$$

ARZ009-017-025-026-028-282300-
NORTHEAST ARKANSAS

CITY           SKY/WX    TMP DP  RH WIND       PRES   REMARKS
CORNING        LGT RAIN  81  46  30 W12       29.93R
JONESBORO      SUNNY     82  46  28 W6        29.92S
NEWPORT        SUNNY     83  45  26 CALM      29.94S
WALNUT RIDGE   SUNNY     81  46  30 SW12      29.93S
BLYTHEVILLE    SUNNY     83  43  24 W8        29.91F
NW BLYTHEVILLE SUNNY     82  45  26 W9G16     29.91S
$$

ARZ022-023-033-042-044-282300-
CENTRAL ARKANSAS

CITY           SKY/WX    TMP DP  RH WIND       PRES   REMARKS
LITTLE ROCK    MOSUNNY   83  48  29 E9        29.91F
N LITTLE ROCK    N/A     82  53  36 E5        29.90F
SEARCY         SUNNY     82  53  36 CALM      29.94S
HOT SPRINGS    SUNNY     83  47  28 E3        29.91S
RUSSELLVILLE   SUNNY     81  45  28 SE3       29.90F
$$

ARZ036-282300-
EAST ARKANSAS

CITY           SKY/WX    TMP DP  RH WIND       PRES   REMARKS
WEST MEMPHIS   SUNNY     82  51  34 VRB3      29.91F
$$

ARZ050-053-066-070-073-282300-
SOUTHWEST ARKANSAS

CITY           SKY/WX    TMP DP  RH WIND       PRES   REMARKS
ARKADELPHIA    FAIR      86  63  45 VRB5      29.90S HX  87
CAMDEN         SUNNY     86  48  26 E6        29.88F
TEXARKANA      SUNNY     83  54  36 VRB3      29.88F
EL DORADO      SUNNY     84  54  35 NE8       29.89F
DE QUEEN       SUNNY     83  54  36 E7        29.87F
$$

ARZ056-057-069-282300-
SOUTHEAST ARKANSAS

CITY           SKY/WX    TMP DP  RH WIND       PRES   REMARKS
PINE BLUFF     SUNNY     84  49  29 VRB5      29.90F
STUTTGART      SUNNY     81  50  34 MISG      29.93S
MONTICELLO     SUNNY     86  54  33 NE8       29.89F

$$






USA.gov is the U.S. government's official web portal to all federal, state and local government web resources and services.